Radiation Dose at Monitoring Post of Fukushima Daini Nuclear Power Station
Date,Time,MP-1(microSv/h),MP-2(microSv/h),MP-3(microSv/h),MP-4(microSv/h),MP-5(microSv/h),MP-6(microSv/h),MP-7(microSv/h),Wind Direction,Wind Velocity(m/s),Rain
2017/01/08,00:00,0.396,0.236,0.408,0.379,0.340,0.196,0.167,west,7.3,No
2017/01/08,00:10,0.396,0.236,0.408,0.379,0.341,0.194,0.167,west,5.6,No
2017/01/08,00:20,0.395,0.236,0.409,0.378,0.342,0.195,0.168,west,5.9,No
2017/01/08,00:30,0.394,0.236,0.409,0.378,0.338,0.195,0.168,west-northwest,6.9,No
2017/01/08,00:40,0.396,0.236,0.408,0.379,0.342,0.195,0.167,west-northwest,5.5,No
2017/01/08,00:50,0.396,0.235,0.407,0.379,0.341,0.195,0.167,west-northwest,5.8,No
2017/01/08,01:00,0.395,0.236,0.409,0.376,0.341,0.195,0.167,west-northwest,4.5,No
2017/01/08,01:10,0.396,0.236,0.409,0.378,0.341,0.194,0.166,west-northwest,3.8,No
2017/01/08,01:20,0.396,0.237,0.409,0.379,0.341,0.196,0.168,west-northwest,2.8,No
2017/01/08,01:30,0.396,0.236,0.410,0.377,0.341,0.195,0.167,west,3.4,No
2017/01/08,01:40,0.395,0.237,0.408,0.378,0.341,0.195,0.167,west,4.2,No
2017/01/08,01:50,0.395,0.237,0.407,0.380,0.341,0.194,0.167,west,4.0,No
2017/01/08,02:00,0.397,0.236,0.408,0.378,0.341,0.194,0.168,west,5.5,No
2017/01/08,02:10,0.396,0.236,0.410,0.378,0.342,0.195,0.167,west,5.9,No
2017/01/08,02:20,0.395,0.236,0.409,0.378,0.342,0.195,0.167,west,7.0,No
2017/01/08,02:30,0.394,0.236,0.408,0.379,0.342,0.195,0.166,west,6.4,No
2017/01/08,02:40,0.397,0.236,0.408,0.378,0.341,0.194,0.167,west,6.6,No
2017/01/08,02:50,0.395,0.236,0.409,0.377,0.341,0.195,0.167,west,6.7,No
2017/01/08,03:00,0.396,0.236,0.408,0.377,0.340,0.195,0.168,west,6.6,No
2017/01/08,03:10,0.394,0.235,0.408,0.379,0.341,0.196,0.168,west,6.3,No
2017/01/08,03:20,0.396,0.236,0.408,0.379,0.340,0.195,0.166,west,5.9,No
2017/01/08,03:30,0.394,0.236,0.410,0.376,0.341,0.195,0.168,west,7.6,No
2017/01/08,03:40,0.395,0.236,0.409,0.379,0.342,0.195,0.167,west-northwest,6.8,No
2017/01/08,03:50,0.395,0.235,0.408,0.377,0.341,0.194,0.167,west,6.9,No
2017/01/08,04:00,0.396,0.236,0.408,0.376,0.341,0.195,0.166,west-northwest,8.4,No
2017/01/08,04:10,0.395,0.236,0.409,0.378,0.341,0.194,0.167,west-northwest,7.9,No
2017/01/08,04:20,0.395,0.236,0.409,0.378,0.340,0.195,0.168,west-northwest,7.0,No
2017/01/08,04:30,0.396,0.236,0.408,0.378,0.340,0.195,0.167,west-northwest,6.6,No
2017/01/08,04:40,0.396,0.237,0.410,0.377,0.339,0.193,0.168,west-northwest,6.8,No
2017/01/08,04:50,0.397,0.236,0.409,0.378,0.341,0.195,0.168,west-northwest,7.0,No
2017/01/08,05:00,0.394,0.236,0.407,0.378,0.342,0.195,0.167,west-northwest,4.9,No
2017/01/08,05:10,0.394,0.236,0.408,0.377,0.340,0.195,0.167,northwest,4.5,No
2017/01/08,05:20,0.394,0.237,0.410,0.377,0.340,0.194,0.166,north,1.7,No
2017/01/08,05:30,0.395,0.235,0.409,0.378,0.340,0.195,0.168,north,4.6,No
2017/01/08,05:40,0.396,0.236,0.408,0.379,0.341,0.194,0.166,north,7.2,No
2017/01/08,05:50,0.394,0.237,0.409,0.376,0.340,0.194,0.167,north,7.2,No
2017/01/08,06:00,0.396,0.236,0.409,0.378,0.340,0.195,0.168,north,7.0,No
2017/01/08,06:10,0.395,0.237,0.408,0.379,0.341,0.194,0.167,north,9.1,No
2017/01/08,06:20,0.395,0.237,0.408,0.379,0.341,0.195,0.168,north,11.5,No
2017/01/08,06:30,0.395,0.236,0.409,0.379,0.341,0.195,0.167,north,11.3,No
2017/01/08,06:40,0.396,0.237,0.408,0.378,0.341,0.195,0.167,north,11.2,No
2017/01/08,06:50,0.396,0.235,0.408,0.379,0.341,0.195,0.167,north,10.3,No
2017/01/08,07:00,0.397,0.237,0.408,0.379,0.340,0.195,0.167,north,8.4,No
2017/01/08,07:10,0.396,0.236,0.408,0.378,0.342,0.195,0.167,north,8.3,No
2017/01/08,07:20,0.395,0.236,0.410,0.379,0.342,0.194,0.167,north,7.5,No
2017/01/08,07:30,0.396,0.237,0.407,0.378,0.340,0.195,0.167,north-northwest,5.5,No
2017/01/08,07:40,0.394,0.236,0.408,0.378,0.342,0.195,0.167,north-northwest,4.5,No
2017/01/08,07:50,0.396,0.237,0.407,0.377,0.341,0.196,0.166,north,7.4,No
2017/01/08,08:00,0.396,0.236,0.410,0.376,0.342,0.195,0.167,north,6.5,No
2017/01/08,08:10,0.397,0.236,0.408,0.378,0.341,0.196,0.167,north-northwest,5.0,No
2017/01/08,08:20,0.396,0.236,0.408,0.377,0.341,0.195,0.167,north,5.2,No
2017/01/08,08:30,0.395,0.236,0.408,0.377,0.341,0.195,0.167,north,6.4,No
2017/01/08,08:40,0.395,0.237,0.410,0.378,0.340,0.194,0.167,north,5.3,No
2017/01/08,08:50,0.396,0.236,0.409,0.376,0.342,0.194,0.166,north,5.5,No
2017/01/08,09:00,0.394,0.236,0.410,0.379,0.342,0.194,0.167,north-northwest,5.3,No
2017/01/08,09:10,0.396,0.236,0.410,0.375,0.341,0.194,0.166,north-northwest,4.1,No
2017/01/08,09:20,0.395,0.237,0.409,0.378,0.341,0.194,0.166,north,3.4,No
2017/01/08,09:30,0.395,0.236,0.408,0.378,0.343,0.195,0.166,north,3.6,No
2017/01/08,09:40,0.396,0.236,0.407,0.378,0.340,0.194,0.166,north,4.2,No
2017/01/08,09:50,0.394,0.235,0.409,0.377,0.342,0.195,0.166,north,3.1,No
2017/01/08,10:00,0.395,0.236,0.407,0.375,0.342,0.195,0.167,north,4.7,No
2017/01/08,10:10,0.394,0.236,0.408,0.378,0.340,0.195,0.166,north-northeast,4.5,No
2017/01/08,10:20,0.395,0.236,0.409,0.376,0.342,0.195,0.168,north-northeast,7.6,No
2017/01/08,10:30,0.394,0.236,0.407,0.379,0.341,0.195,0.167,north-northeast,4.4,No
2017/01/08,10:40,0.394,0.237,0.408,0.376,0.342,0.194,0.167,north,4.2,No
2017/01/08,10:50,0.396,0.237,0.408,0.379,0.341,0.194,0.168,north,3.4,No
2017/01/08,11:00,0.394,0.237,0.407,0.376,0.341,0.195,0.166,north,4.8,No
2017/01/08,11:10,0.395,0.236,0.409,0.379,0.344,0.194,0.167,north,2.5,No
2017/01/08,11:20,0.397,0.236,0.407,0.378,0.340,0.196,0.167,north,4.7,No
2017/01/08,11:30,0.395,0.237,0.407,0.379,0.341,0.194,0.169,north,5.2,No
2017/01/08,11:40,0.396,0.237,0.410,0.380,0.342,0.195,0.166,north,4.7,No
2017/01/08,11:50,0.395,0.236,0.407,0.378,0.340,0.197,0.168,north-northwest,4.6,No
2017/01/08,12:00,0.394,0.237,0.408,0.379,0.344,0.194,0.168,north,5.3,No
2017/01/08,12:10,0.396,0.236,0.409,0.377,0.341,0.195,0.168,north,4.5,No
2017/01/08,12:20,0.395,0.236,0.408,0.380,0.341,0.195,0.167,north-northeast,4.0,No
2017/01/08,12:30,0.393,0.237,0.410,0.378,0.343,0.195,0.167,north-northeast,4.7,No
2017/01/08,12:40,0.397,0.236,0.408,0.380,0.341,0.195,0.166,north,3.1,No
2017/01/08,12:50,0.394,0.236,0.407,0.380,0.343,0.195,0.168,north-northeast,2.9,No
2017/01/08,13:00,0.393,0.235,0.409,0.378,0.342,0.195,0.167,north,4.3,No
2017/01/08,13:10,0.396,0.236,0.405,0.380,0.341,0.196,0.167,north,3.4,No
2017/01/08,13:20,0.395,0.237,0.408,0.378,0.345,0.196,0.168,north,3.1,No
2017/01/08,13:30,0.396,0.236,0.409,0.379,0.343,0.195,0.168,north,1.7,No
2017/01/08,13:40,0.397,0.236,0.409,0.379,0.342,0.195,0.168,north,1.5,No
2017/01/08,13:50,0.394,0.237,0.410,0.378,0.344,0.195,0.168,north,4.0,No
2017/01/08,14:00,0.396,0.236,0.409,0.380,0.341,0.195,0.167,north,3.7,No
2017/01/08,14:10,0.395,0.237,0.406,0.377,0.344,0.195,0.167,north,3.8,No
2017/01/08,14:20,0.394,0.236,0.409,0.380,0.342,0.195,0.168,north,2.8,No
2017/01/08,14:30,0.397,0.237,0.408,0.380,0.340,0.195,0.167,north,3.8,Yes
2017/01/08,14:40,0.396,0.238,0.407,0.379,0.344,0.195,0.167,north,2.9,No
2017/01/08,14:50,0.393,0.237,0.410,0.380,0.344,0.194,0.168,north,3.1,Yes
2017/01/08,15:00,0.397,0.237,0.408,0.378,0.341,0.196,0.169,north,5.0,Yes
2017/01/08,15:10,0.396,0.239,0.409,0.379,0.342,0.196,0.169,north,5.0,No
2017/01/08,15:20,0.396,0.237,0.411,0.381,0.342,0.196,0.168,north,4.1,No
2017/01/08,15:30,0.396,0.240,0.408,0.378,0.341,0.196,0.168,north,3.5,Yes
2017/01/08,15:40,0.396,0.237,0.409,0.378,0.343,0.195,0.168,east,2.5,No
2017/01/08,15:50,0.395,0.237,0.409,0.379,0.341,0.195,0.168,northeast,3.6,No
2017/01/08,16:00,0.396,0.237,0.408,0.379,0.342,0.195,0.168,east-northeast,5.8,No
2017/01/08,16:10,0.395,0.236,0.407,0.380,0.344,0.195,0.167,east-northeast,5.8,No
2017/01/08,16:20,0.396,0.236,0.409,0.379,0.341,0.195,0.168,east-northeast,4.3,No
2017/01/08,16:30,0.396,0.237,0.409,0.377,0.342,0.195,0.168,east-northeast,5.0,No
2017/01/08,16:40,0.395,0.236,0.407,0.378,0.342,0.195,0.167,east,4.4,No
2017/01/08,16:50,0.394,0.236,0.410,0.379,0.341,0.194,0.168,east,5.7,No
2017/01/08,17:00,0.394,0.236,0.409,0.378,0.341,0.194,0.166,east,6.5,No
2017/01/08,17:10,0.395,0.237,0.408,0.379,0.343,0.197,0.167,east-northeast,5.4,No
2017/01/08,17:20,0.395,0.237,0.409,0.378,0.341,0.195,0.168,east-northeast,5.3,No
2017/01/08,17:30,0.396,0.235,0.409,0.379,0.342,0.195,0.168,east,6.2,No
2017/01/08,17:40,0.394,0.237,0.409,0.379,0.344,0.195,0.167,east-northeast,6.8,No
2017/01/08,17:50,0.396,0.235,0.410,0.378,0.341,0.196,0.167,east,7.0,No
2017/01/08,18:00,0.397,0.237,0.410,0.378,0.342,0.195,0.167,east,7.3,No
2017/01/08,18:10,0.395,0.236,0.408,0.380,0.342,0.195,0.167,east-northeast,8.3,No
2017/01/08,18:20,0.396,0.236,0.408,0.377,0.342,0.195,0.167,east-northeast,9.5,Yes
2017/01/08,18:30,0.395,0.237,0.408,0.378,0.342,0.196,0.168,east-northeast,8.6,Yes
2017/01/08,18:40,0.396,0.237,0.409,0.381,0.344,0.196,0.168,east-northeast,7.5,Yes
2017/01/08,18:50,0.398,0.239,0.412,0.380,0.343,0.197,0.170,east-northeast,8.1,Yes
2017/01/08,19:00,0.399,0.239,0.411,0.381,0.343,0.197,0.170,east-northeast,9.1,Yes
2017/01/08,19:10,0.396,0.239,0.408,0.382,0.343,0.197,0.171,east-northeast,7.3,Yes
2017/01/08,19:20,0.398,0.240,0.410,0.379,0.344,0.198,0.171,east-northeast,7.8,Yes
2017/01/08,19:30,0.398,0.238,0.409,0.378,0.343,0.198,0.171,east-northeast,7.7,Yes
2017/01/08,19:40,0.396,0.239,0.411,0.380,0.342,0.198,0.170,northeast,7.8,Yes
2017/01/08,19:50,0.397,0.239,0.410,0.378,0.341,0.197,0.171,northeast,5.7,Yes
2017/01/08,20:00,0.397,0.240,0.409,0.379,0.342,0.198,0.170,northeast,8.3,Yes
2017/01/08,20:10,0.397,0.239,0.408,0.379,0.342,0.198,0.170,northeast,8.6,Yes
2017/01/08,20:20,0.396,0.239,0.408,0.379,0.342,0.198,0.171,northeast,7.8,Yes
2017/01/08,20:30,0.397,0.239,0.408,0.377,0.340,0.199,0.170,northeast,8.6,Yes
2017/01/08,20:40,0.397,0.240,0.406,0.379,0.341,0.198,0.171,northeast,8.4,Yes
2017/01/08,20:50,0.396,0.239,0.406,0.379,0.343,0.198,0.170,northeast,7.7,Yes
2017/01/08,21:00,0.398,0.241,0.408,0.376,0.342,0.198,0.171,northeast,8.4,Yes
2017/01/08,21:10,0.396,0.240,0.406,0.377,0.342,0.199,0.171,northeast,8.1,Yes
2017/01/08,21:20,0.394,0.239,0.404,0.378,0.343,0.198,0.171,northeast,8.7,Yes
2017/01/08,21:30,0.396,0.239,0.407,0.377,0.341,0.199,0.171,northeast,9.7,Yes
2017/01/08,21:40,0.397,0.239,0.406,0.376,0.342,0.199,0.170,northeast,7.2,Yes
2017/01/08,21:50,0.395,0.240,0.406,0.377,0.341,0.198,0.169,northeast,7.4,Yes
2017/01/08,22:00,0.395,0.239,0.405,0.377,0.342,0.199,0.169,north-northeast,8.2,Yes
2017/01/08,22:10,0.397,0.239,0.405,0.376,0.340,0.197,0.169,northeast,9.7,Yes
2017/01/08,22:20,0.395,0.239,0.405,0.377,0.340,0.198,0.168,northeast,7.2,Yes
2017/01/08,22:30,0.395,0.238,0.404,0.375,0.342,0.198,0.169,northeast,7.6,Yes
2017/01/08,22:40,0.394,0.238,0.406,0.374,0.340,0.198,0.170,northeast,9.3,Yes
2017/01/08,22:50,0.395,0.238,0.402,0.375,0.341,0.197,0.170,northeast,10.4,Yes
2017/01/08,23:00,0.393,0.238,0.402,0.372,0.341,0.197,0.170,northeast,10.7,Yes
2017/01/08,23:10,0.393,0.238,0.403,0.372,0.339,0.198,0.168,northeast,8.9,Yes
2017/01/08,23:20,0.395,0.238,0.402,0.372,0.339,0.196,0.167,northeast,10.1,Yes
2017/01/08,23:30,0.393,0.237,0.399,0.373,0.340,0.196,0.168,northeast,8.2,Yes
2017/01/08,23:40,0.392,0.238,0.401,0.372,0.339,0.197,0.168,northeast,11.1,Yes
2017/01/08,23:50,0.394,0.238,0.401,0.372,0.339,0.197,0.168,northeast,10.4,Yes
